,,PA_Meas_PMT16A,,PR_Meas_QMR101_102,,RH_Meas_QMH101,,SR_Meas_QMS101,,TA_Meas_QMH101,,GenWind,,GenWind,
time,status,PA,status,PR,status,RH,status,SR,status,TA,status,DirAvg,status,SpdAvg,
2011-10-11, 00:00:04,VALID,920.19,VALID,0,VALID,93.3564,VALID,0,VALID,19.9353,VALID,2,VALID,0.465625,
2011-10-11, 00:01:04,VALID,920.16,VALID,0,VALID,93.3868,VALID,0,VALID,19.9158,VALID,3,VALID,0.317187,
2011-10-11, 00:02:04,VALID,920.136,VALID,0,VALID,93.5774,VALID,0,VALID,19.9158,VALID,2,VALID,0.646094,
2011-10-11, 00:03:04,VALID,920.128,VALID,0,VALID,93.7756,VALID,0,VALID,19.8963,VALID,2,VALID,0.486328,
2011-10-11, 00:04:04,VALID,920.107,VALID,0,VALID,93.9586,VALID,0,VALID,19.8963,VALID,2,VALID,0.101563,
2011-10-11, 00:05:04,VALID,920.111,VALID,0,VALID,94.1721,VALID,0,VALID,19.9353,VALID,2,VALID,0.555859,
2011-10-11, 00:06:04,VALID,920.099,VALID,0,VALID,94.2407,VALID,0,VALID,19.9743,VALID,2,VALID,0.433203,
2011-10-11, 00:07:04,VALID,920.114,VALID,0,VALID,94.1339,VALID,0,VALID,20.0328,VALID,2,VALID,0.740234,
2011-10-11, 00:08:04,VALID,920.1,VALID,0,VALID,93.9281,VALID,0,VALID,20.0328,VALID,2,VALID,0.542188,
2011-10-11, 00:09:04,VALID,920.076,VALID,0,VALID,94.0348,VALID,0,VALID,20.0928,VALID,324,VALID,0.704687,
2011-10-11, 00:10:04,VALID,920.059,VALID,0,VALID,93.9052,VALID,0,VALID,20.0523,VALID,324,VALID,0.773438,
2011-10-11, 00:11:04,VALID,920.046,VALID,0,VALID,93.8519,VALID,0,VALID,20.0733,VALID,324,VALID,0.520703,
2011-10-11, 00:12:04,VALID,920.043,VALID,0,VALID,93.8824,VALID,0,VALID,20.0523,VALID,324,VALID,0.421875,
2011-10-11, 00:13:04,VALID,920.024,VALID,0,VALID,93.9052,VALID,0,VALID,20.0523,VALID,324,VALID,0,
2011-10-11, 00:14:04,VALID,920.044,VALID,0,VALID,93.707,VALID,0,VALID,20.0718,VALID,324,VALID,0,
2011-10-11, 00:15:04,VALID,919.986,VALID,0,VALID,93.5241,VALID,0,VALID,20.0928,VALID,324,VALID,0,
2011-10-11, 00:16:04,VALID,920.006,VALID,0,VALID,93.2268,VALID,0,VALID,20.0733,VALID,324,VALID,0,
2011-10-11, 00:17:04,VALID,919.986,VALID,0,VALID,93.2268,VALID,0,VALID,20.0343,VALID,324,VALID,0,
2011-10-11, 00:18:04,VALID,919.974,VALID,0,VALID,93.1658,VALID,0,VALID,20.0538,VALID,324,VALID,0,
2011-10-11, 00:19:04,VALID,919.963,VALID,0,VALID,93.0972,VALID,0,VALID,20.0538,VALID,324,VALID,0,
2011-10-11, 00:20:04,VALID,919.916,VALID,0,VALID,93.1353,VALID,0,VALID,20.0328,VALID,324,VALID,0,
2011-10-11, 00:21:04,VALID,919.915,VALID,0,VALID,92.8761,VALID,0,VALID,20.0148,VALID,324,VALID,0,
2011-10-11, 00:22:04,VALID,919.919,VALID,0,VALID,93.1886,VALID,0,VALID,19.9938,VALID,324,VALID,0.255078,
2011-10-11, 00:23:04,VALID,919.899,VALID,0,VALID,93.4783,VALID,0,VALID,20.0343,VALID,324,VALID,0,
2011-10-11, 00:24:04,VALID,919.884,VALID,0,VALID,93.6308,VALID,0,VALID,20.0343,VALID,324,VALID,0,
2011-10-11, 00:25:04,VALID,919.889,VALID,0,VALID,93.829,VALID,0,VALID,20.0538,VALID,324,VALID,0,
2011-10-11, 00:26:04,VALID,919.892,VALID,0,VALID,93.8061,VALID,0,VALID,20.0523,VALID,324,VALID,0,
2011-10-11, 00:27:04,VALID,919.87,VALID,0,VALID,93.6384,VALID,0,VALID,20.1123,VALID,324,VALID,0,
2011-10-11, 00:28:04,VALID,919.895,VALID,0,VALID,93.2344,VALID,0,VALID,20.0928,VALID,324,VALID,0,
2011-10-11, 00:29:04,VALID,919.859,VALID,0,VALID,92.9294,VALID,0,VALID,20.0523,VALID,324,VALID,0.221484,
2011-10-11, 00:30:04,VALID,919.849,VALID,0,VALID,92.9142,VALID,0.107441,VALID,20.0523,VALID,324,VALID,0.230078,
2011-10-11, 00:31:04,VALID,919.856,VALID,0,VALID,93.0972,VALID,0,VALID,20.0733,VALID,324,VALID,0.0121094,
2011-10-11, 00:32:04,VALID,919.856,VALID,0,VALID,93.7299,VALID,0,VALID,20.1108,VALID,324,VALID,0.155078,
2011-10-11, 00:33:04,VALID,919.855,VALID,0,VALID,94.012,VALID,0,VALID,20.1708,VALID,324,VALID,0.292188,
2011-10-11, 00:34:04,VALID,919.831,VALID,0,VALID,94.1034,VALID,0,VALID,20.1498,VALID,324,VALID,0.0195313,
2011-10-11, 00:35:04,VALID,919.827,VALID,0,VALID,93.9357,VALID,0,VALID,20.1498,VALID,324,VALID,0.00351562,
2011-10-11, 00:36:04,VALID,919.819,VALID,0,VALID,93.6155,VALID,0,VALID,20.1693,VALID,324,VALID,0,
2011-10-11, 00:37:04,VALID,919.804,VALID,0,VALID,93.5241,VALID,0,VALID,20.1903,VALID,324,VALID,0,
2011-10-11, 00:38:04,VALID,919.821,VALID,0,VALID,93.6003,VALID,0,VALID,20.2098,VALID,324,VALID,0,
2011-10-11, 00:39:04,VALID,919.844,VALID,0,VALID,93.4859,VALID,0,VALID,20.2083,VALID,324,VALID,0,
2011-10-11, 00:40:04,VALID,919.823,VALID,0,VALID,93.2649,VALID,0,VALID,20.2293,VALID,324,VALID,0,
2011-10-11, 00:41:04,VALID,919.814,VALID,0,VALID,93.0514,VALID,0,VALID,20.2098,VALID,324,VALID,0.169531,
2011-10-11, 00:42:04,VALID,919.803,VALID,0,VALID,92.6397,VALID,0,VALID,20.1888,VALID,324,VALID,0.00195313,
2011-10-11, 00:43:04,VALID,919.809,VALID,0,VALID,92.5178,VALID,0,VALID,20.2083,VALID,324,VALID,0,
2011-10-11, 00:44:04,VALID,919.789,VALID,0,VALID,92.777,VALID,0,VALID,20.2489,VALID,324,VALID,0,
2011-10-11, 00:45:04,VALID,919.763,VALID,0,VALID,92.9676,VALID,0,VALID,20.2668,VALID,324,VALID,0,
2011-10-11, 00:46:04,VALID,919.739,VALID,0,VALID,92.9676,VALID,0,VALID,20.2863,VALID,324,VALID,0,
2011-10-11, 00:47:04,VALID,919.728,VALID,0,VALID,92.8532,VALID,0,VALID,20.3269,VALID,324,VALID,0,
2011-10-11, 00:48:04,VALID,919.702,VALID,0,VALID,92.411,VALID,0,VALID,20.2879,VALID,324,VALID,0.191406,
2011-10-11, 00:49:04,VALID,919.699,VALID,0,VALID,92.0832,VALID,0,VALID,20.2278,VALID,324,VALID,0,
2011-10-11, 00:50:04,VALID,919.615,VALID,0,VALID,92.6016,VALID,0,VALID,20.2684,VALID,324,VALID,0.403125,
2011-10-11, 00:51:04,VALID,919.604,VALID,0,VALID,92.5483,VALID,0,VALID,20.2278,VALID,324,VALID,0.01875,
2011-10-11, 00:52:04,VALID,919.592,VALID,0,VALID,92.3501,VALID,0,VALID,20.2083,VALID,324,VALID,0,
2011-10-11, 00:53:04,VALID,919.606,VALID,0,VALID,92.5025,VALID,0,VALID,20.1903,VALID,324,VALID,0.367578,
2011-10-11, 00:54:04,VALID,919.591,VALID,0,VALID,92.5254,VALID,0,VALID,20.1513,VALID,324,VALID,0,
2011-10-11, 00:55:04,VALID,919.617,VALID,0,VALID,92.8761,VALID,0,VALID,20.1318,VALID,324,VALID,0,
2011-10-11, 00:56:04,VALID,919.601,VALID,0,VALID,93.1048,VALID,0,VALID,20.0913,VALID,324,VALID,0.325781,
2011-10-11, 00:57:04,VALID,919.568,VALID,0,VALID,93.0285,VALID,0,VALID,20.0733,VALID,324,VALID,0,
2011-10-11, 00:58:04,VALID,919.563,VALID,0,VALID,93.1353,VALID,0,VALID,20.0538,VALID,324,VALID,0,
2011-10-11, 00:59:04,VALID,919.552,VALID,0,VALID,93.1581,VALID,0,VALID,20.0133,VALID,324,VALID,0.151953,
2011-10-11, 01:00:04,VALID,919.549,VALID,0,VALID,93.2877,VALID,0,VALID,19.9743,VALID,324,VALID,0.264062,
2011-10-11, 01:01:04,VALID,919.551,VALID,0,VALID,93.5469,VALID,0,VALID,19.9548,VALID,324,VALID,0,
2011-10-11, 01:02:04,VALID,919.55,VALID,0,VALID,93.7375,VALID,0,VALID,19.9338,VALID,324,VALID,0.328516,
2011-10-11, 01:03:04,VALID,919.494,VALID,0,VALID,93.707,VALID,0,VALID,19.9158,VALID,324,VALID,0.604297,
2011-10-11, 01:04:04,VALID,919.507,VALID,0,VALID,93.8214,VALID,0,VALID,19.8573,VALID,324,VALID,0.532422,
2011-10-11, 01:05:04,VALID,919.45,VALID,0,VALID,94.1187,VALID,0,VALID,19.8573,VALID,324,VALID,0.723047,
2011-10-11, 01:06:04,VALID,919.464,VALID,0,VALID,94.0653,VALID,0.107441,VALID,19.7988,VALID,324,VALID,0.652344,
2011-10-11, 01:07:04,VALID,919.419,VALID,0,VALID,94.1644,VALID,0,VALID,19.7598,VALID,324,VALID,0.753906,
2011-10-11, 01:08:04,VALID,919.414,VALID,0,VALID,94.2788,VALID,0,VALID,19.7598,VALID,324,VALID,0.233984,
2011-10-11, 01:09:04,VALID,919.432,VALID,0,VALID,94.3931,VALID,0,VALID,19.7808,VALID,324,VALID,0.272266,
2011-10-11, 01:10:04,VALID,919.406,VALID,0,VALID,94.6295,VALID,0,VALID,19.8003,VALID,324,VALID,0.440234,
2011-10-11, 01:11:04,VALID,919.393,VALID,0,VALID,94.7209,VALID,0,VALID,19.8198,VALID,324,VALID,0.439063,
2011-10-11, 01:12:04,VALID,919.373,VALID,0,VALID,94.599,VALID,0.107441,VALID,19.7988,VALID,324,VALID,0.0304688,
2011-10-11, 01:13:04,VALID,919.355,VALID,0,VALID,94.2788,VALID,0,VALID,19.8003,VALID,324,VALID,0.350781,
2011-10-11, 01:14:04,VALID,919.33,VALID,0,VALID,94.5227,VALID,0,VALID,19.8003,VALID,324,VALID,0.700391,
2011-10-11, 01:15:04,VALID,919.277,VALID,0,VALID,94.4617,VALID,0,VALID,19.7808,VALID,324,VALID,0.516797,
2011-10-11, 01:16:04,VALID,919.267,VALID,0,VALID,94.5532,VALID,0,VALID,19.7418,VALID,352,VALID,0.552344,
2011-10-11, 01:17:04,VALID,919.258,VALID,0,VALID,94.5456,VALID,0,VALID,19.6818,VALID,6,VALID,0.380469,
2011-10-11, 01:18:04,VALID,919.216,VALID,0,VALID,94.7362,VALID,0,VALID,19.6623,VALID,6,VALID,0.250391,
2011-10-11, 01:19:04,VALID,919.188,VALID,0,VALID,94.9039,VALID,0,VALID,19.6818,VALID,6,VALID,0.463672,
2011-10-11, 01:20:04,VALID,919.161,VALID,0,VALID,94.8734,VALID,0.107441,VALID,19.7028,VALID,6,VALID,0.699609,
2011-10-11, 01:21:04,VALID,919.147,VALID,0,VALID,94.9115,VALID,0,VALID,19.6833,VALID,6,VALID,0.39375,
2011-10-11, 01:22:04,VALID,919.105,VALID,0,VALID,94.9878,VALID,0,VALID,19.7028,VALID,6,VALID,0.450391,
2011-10-11, 01:23:04,VALID,919.045,VALID,0,VALID,95.0564,VALID,0,VALID,19.6623,VALID,6,VALID,0.466016,
2011-10-11, 01:24:04,VALID,919.024,VALID,0,VALID,95.0945,VALID,0,VALID,19.6833,VALID,6,VALID,0.597266,
2011-10-11, 01:25:04,VALID,919.008,VALID,0,VALID,95.1021,VALID,0,VALID,19.6833,VALID,6,VALID,0.586719,
2011-10-11, 01:26:04,VALID,918.999,VALID,0,VALID,95.0792,VALID,0,VALID,19.6638,VALID,6,VALID,0.385156,
2011-10-11, 01:27:04,VALID,918.952,VALID,0,VALID,95.1326,VALID,0,VALID,19.6443,VALID,6,VALID,0.889844,
2011-10-11, 01:28:04,VALID,918.989,VALID,0,VALID,95.1783,VALID,0,VALID,19.6443,VALID,6,VALID,0.399609,
2011-10-11, 01:29:04,VALID,918.995,VALID,0,VALID,95.2622,VALID,0,VALID,19.6638,VALID,6,VALID,0.448047,
2011-10-11, 01:30:04,VALID,918.969,VALID,0,VALID,95.3537,VALID,0,VALID,19.6833,VALID,6,VALID,0.382422,
2011-10-11, 01:31:04,VALID,918.965,VALID,0,VALID,95.3232,VALID,0,VALID,19.7028,VALID,6,VALID,0.385547,
2011-10-11, 01:32:04,VALID,918.932,VALID,0,VALID,95.186,VALID,0,VALID,19.7028,VALID,6,VALID,0.271094,
2011-10-11, 01:33:04,VALID,918.902,VALID,0,VALID,95.0945,VALID,0,VALID,19.7028,VALID,6,VALID,0.263672,
2011-10-11, 01:34:04,VALID,918.851,VALID,0,VALID,94.9878,VALID,0,VALID,19.6833,VALID,6,VALID,0.331641,
2011-10-11, 01:35:04,VALID,918.843,VALID,0,VALID,95.1479,VALID,0,VALID,19.7028,VALID,6,VALID,0.209766,
2011-10-11, 01:36:04,VALID,918.798,VALID,0,VALID,95.0945,VALID,0,VALID,19.7013,VALID,6,VALID,0.435937,
2011-10-11, 01:37:04,VALID,918.791,VALID,0,VALID,94.9801,VALID,0,VALID,19.7028,VALID,6,VALID,0.194531,
2011-10-11, 01:38:04,VALID,918.741,VALID,0,VALID,95.1097,VALID,0,VALID,19.7028,VALID,6,VALID,0.399219,
2011-10-11, 01:39:04,VALID,918.702,VALID,0,VALID,94.942,VALID,0,VALID,19.6818,VALID,6,VALID,0.327344,
2011-10-11, 01:40:04,VALID,918.65,VALID,0,VALID,95.0335,VALID,0,VALID,19.7223,VALID,6,VALID,0.376563,
2011-10-11, 01:41:04,VALID,918.645,VALID,0,VALID,94.9878,VALID,0,VALID,19.7028,VALID,6,VALID,0.458984,
2011-10-11, 01:42:04,VALID,918.618,VALID,0,VALID,94.8887,VALID,0,VALID,19.6833,VALID,6,VALID,0.303125,
2011-10-11, 01:43:04,VALID,918.598,VALID,0,VALID,94.8734,VALID,0,VALID,19.6623,VALID,6,VALID,0.102344,
2011-10-11, 01:44:04,VALID,918.551,VALID,0,VALID,94.9192,VALID,0,VALID,19.6848,VALID,6,VALID,0.30625,
2011-10-11, 01:45:04,VALID,918.532,VALID,0,VALID,94.9268,VALID,0,VALID,19.6443,VALID,6,VALID,0.370313,
2011-10-11, 01:46:04,VALID,918.506,VALID,0,VALID,95.0106,VALID,0,VALID,19.6458,VALID,6,VALID,0.620703,
2011-10-11, 01:47:04,VALID,918.484,VALID,0,VALID,95.0945,VALID,0,VALID,19.6653,VALID,6,VALID,0.381641,
2011-10-11, 01:48:04,VALID,918.48,VALID,0,VALID,95.0716,VALID,0,VALID,19.6053,VALID,6,VALID,0.249219,
2011-10-11, 01:49:04,VALID,918.493,VALID,0,VALID,94.6142,VALID,0,VALID,19.5078,VALID,6,VALID,0.202734,
2011-10-11, 01:50:04,VALID,918.461,VALID,0,VALID,94.6295,VALID,0,VALID,19.4493,VALID,6,VALID,0.314063,
2011-10-11, 01:51:04,VALID,918.494,VALID,0,VALID,95.003,VALID,0,VALID,19.4493,VALID,6,VALID,0.366016,
2011-10-11, 01:52:04,VALID,918.487,VALID,0,VALID,95.247,VALID,0,VALID,19.4298,VALID,6,VALID,0.200781,
2011-10-11, 01:53:04,VALID,918.504,VALID,0,VALID,95.1097,VALID,0,VALID,19.3713,VALID,6,VALID,0.515234,
2011-10-11, 01:54:04,VALID,918.487,VALID,0,VALID,94.9649,VALID,0,VALID,19.2933,VALID,6,VALID,0.616797,
2011-10-11, 01:55:04,VALID,918.509,VALID,0,VALID,95.2088,VALID,0,VALID,19.2738,VALID,6,VALID,0.911719,
2011-10-11, 01:56:04,VALID,918.507,VALID,0,VALID,95.3232,VALID,0,VALID,19.1944,VALID,6,VALID,1.01992,
2011-10-11, 01:57:04,VALID,918.507,VALID,0,VALID,95.6891,VALID,0,VALID,19.2738,VALID,6,VALID,1.12344,
2011-10-11, 01:58:04,VALID,918.491,VALID,0,VALID,95.7882,VALID,0,VALID,19.2738,VALID,6,VALID,0.913672,
2011-10-11, 01:59:04,VALID,918.463,VALID,0,VALID,95.9102,VALID,0,VALID,19.2738,VALID,6,VALID,0.696484,
2011-10-11, 02:00:04,VALID,918.476,VALID,0,VALID,96.055,VALID,0,VALID,19.3128,VALID,6,VALID,0.850781,
2011-10-11, 02:01:04,VALID,918.469,VALID,0,VALID,96.1618,VALID,0,VALID,19.3518,VALID,6,VALID,0.644922,
2011-10-11, 02:02:04,VALID,918.439,VALID,0,VALID,96.0932,VALID,0,VALID,19.3128,VALID,6,VALID,0.760547,
2011-10-11, 02:03:04,VALID,918.443,VALID,0,VALID,96.0703,VALID,0,VALID,19.2933,VALID,6,VALID,0.924219,
2011-10-11, 02:04:04,VALID,918.461,VALID,0,VALID,96.1923,VALID,0,VALID,19.2933,VALID,6,VALID,1.08086,
2011-10-11, 02:05:04,VALID,918.457,VALID,0,VALID,96.1846,VALID,0,VALID,19.3323,VALID,6,VALID,0.914844,
2011-10-11, 02:06:04,VALID,918.432,VALID,0,VALID,96.238,VALID,0,VALID,19.3323,VALID,5,VALID,1.36875,
2011-10-11, 02:07:04,VALID,918.46,VALID,0,VALID,96.2533,VALID,0,VALID,19.3518,VALID,5,VALID,1.74688,
2011-10-11, 02:08:04,VALID,918.444,VALID,0,VALID,96.3066,VALID,0,VALID,19.3713,VALID,5,VALID,1.46719,
2011-10-11, 02:09:04,VALID,918.431,VALID,0,VALID,96.2685,VALID,0,VALID,19.3908,VALID,5,VALID,1.22852,
2011-10-11, 02:10:04,VALID,918.437,VALID,0,VALID,96.3142,VALID,0,VALID,19.3908,VALID,5,VALID,1.20898,
2011-10-11, 02:11:04,VALID,918.453,VALID,0,VALID,96.3066,VALID,0,VALID,19.4103,VALID,5,VALID,0.459766,
2011-10-11, 02:12:04,VALID,918.431,VALID,0,VALID,96.3295,VALID,0,VALID,19.4703,VALID,5,VALID,0.555078,
2011-10-11, 02:13:04,VALID,918.44,VALID,0,VALID,96.2151,VALID,0,VALID,19.4508,VALID,5,VALID,0.415234,
2011-10-11, 02:14:04,VALID,918.385,VALID,0,VALID,96.2228,VALID,0,VALID,19.4298,VALID,5,VALID,0.460156,
2011-10-11, 02:15:04,VALID,918.376,VALID,0,VALID,96.3524,VALID,0,VALID,19.4883,VALID,4,VALID,0.507031,
2011-10-11, 02:16:04,VALID,918.351,VALID,0,VALID,96.1923,VALID,0,VALID,19.5288,VALID,4,VALID,0.426172,
2011-10-11, 02:17:04,VALID,918.293,VALID,0,VALID,96.0779,VALID,0,VALID,19.4688,VALID,4,VALID,0.096875,
2011-10-11, 02:18:04,VALID,918.283,VALID,0,VALID,96.0932,VALID,0,VALID,19.4883,VALID,335,VALID,0.175391,
2011-10-11, 02:19:04,VALID,918.277,VALID,0,VALID,95.9178,VALID,0,VALID,19.4688,VALID,335,VALID,0.181641,
2011-10-11, 02:20:04,VALID,918.267,VALID,0,VALID,95.7654,VALID,0,VALID,19.4298,VALID,335,VALID,0,
2011-10-11, 02:21:04,VALID,918.265,VALID,0,VALID,95.6815,VALID,0,VALID,19.4103,VALID,335,VALID,0.00078125,
2011-10-11, 02:22:04,VALID,918.256,VALID,0,VALID,95.6053,VALID,0,VALID,19.3908,VALID,335,VALID,0.376172,
2011-10-11, 02:23:04,VALID,918.224,VALID,0,VALID,95.4452,VALID,0,VALID,19.3518,VALID,335,VALID,0.211719,
2011-10-11, 02:24:04,VALID,918.23,VALID,0,VALID,95.4452,VALID,0,VALID,19.3323,VALID,335,VALID,0.158203,
2011-10-11, 02:25:04,VALID,918.244,VALID,0,VALID,95.2775,VALID,0,VALID,19.2948,VALID,335,VALID,0.145313,
2011-10-11, 02:26:04,VALID,918.292,VALID,0,VALID,95.4223,VALID,0,VALID,19.2933,VALID,335,VALID,0.0441406,
2011-10-11, 02:27:04,VALID,918.324,VALID,0,VALID,95.2165,VALID,0,VALID,19.2348,VALID,335,VALID,0.297656,
2011-10-11, 02:28:04,VALID,918.349,VALID,0,VALID,95.3689,VALID,0,VALID,19.2558,VALID,335,VALID,0,
2011-10-11, 02:29:04,VALID,918.364,VALID,0,VALID,95.5671,VALID,0,VALID,19.2738,VALID,335,VALID,0.0914062,
2011-10-11, 02:30:04,VALID,918.389,VALID,0,VALID,95.6434,VALID,0,VALID,19.2948,VALID,335,VALID,0,
2011-10-11, 02:31:04,VALID,918.404,VALID,0,VALID,95.7044,VALID,0,VALID,19.2543,VALID,335,VALID,0,
2011-10-11, 02:32:04,VALID,918.384,VALID,0,VALID,95.7577,VALID,0,VALID,19.2738,VALID,335,VALID,0,
2011-10-11, 02:33:04,VALID,918.359,VALID,0,VALID,95.6891,VALID,0,VALID,19.2558,VALID,335,VALID,0.171875,
2011-10-11, 02:34:04,VALID,918.351,VALID,0,VALID,95.6129,VALID,0,VALID,19.2363,VALID,335,VALID,0.410937,
2011-10-11, 02:35:04,VALID,918.325,VALID,0,VALID,95.529,VALID,0,VALID,19.1568,VALID,335,VALID,0.376953,
2011-10-11, 02:36:04,VALID,918.31,VALID,0,VALID,95.5062,VALID,0,VALID,19.1373,VALID,335,VALID,0.402344,
2011-10-11, 02:37:04,VALID,918.301,VALID,0,VALID,95.4985,VALID,0,VALID,19.1178,VALID,335,VALID,0.592578,
2011-10-11, 02:38:04,VALID,918.263,VALID,0,VALID,95.3537,VALID,0,VALID,19.0413,VALID,335,VALID,1.18945,
2011-10-11, 02:39:04,VALID,918.286,VALID,0,VALID,95.6434,VALID,0,VALID,19.0413,VALID,355,VALID,1.0707,
2011-10-11, 02:40:04,VALID,918.28,VALID,0,VALID,95.6586,VALID,0,VALID,18.9814,VALID,4,VALID,1.15898,
2011-10-11, 02:41:04,VALID,918.31,VALID,0,VALID,95.9254,VALID,0,VALID,19.0218,VALID,4,VALID,1.36523,
2011-10-11, 02:42:04,VALID,918.357,VALID,0,VALID,96.1846,VALID,0,VALID,19.0593,VALID,4,VALID,1.31758,
2011-10-11, 02:43:04,VALID,918.298,VALID,0,VALID,96.2837,VALID,0,VALID,19.1193,VALID,4,VALID,0.794922,
2011-10-11, 02:44:04,VALID,918.299,VALID,0,VALID,96.4591,VALID,0,VALID,19.1778,VALID,4,VALID,0.591797,
2011-10-11, 02:45:04,VALID,918.304,VALID,0,VALID,96.4362,VALID,0,VALID,19.1778,VALID,4,VALID,0.606641,
2011-10-11, 02:46:04,VALID,918.301,VALID,0,VALID,96.5048,VALID,0,VALID,19.2348,VALID,4,VALID,0.602344,
2011-10-11, 02:47:04,VALID,918.288,VALID,0,VALID,96.5353,VALID,0,VALID,19.2348,VALID,4,VALID,0.527344,
2011-10-11, 02:48:04,VALID,918.237,VALID,0,VALID,96.5734,VALID,0,VALID,19.2738,VALID,4,VALID,0.433984,
2011-10-11, 02:49:04,VALID,918.235,VALID,0,VALID,96.4362,VALID,0,VALID,19.2738,VALID,4,VALID,0.58125,
2011-10-11, 02:50:04,VALID,918.249,VALID,0,VALID,96.1236,VALID,0,VALID,19.1568,VALID,4,VALID,0.587891,
2011-10-11, 02:51:04,VALID,918.228,VALID,0,VALID,96.3981,VALID,0,VALID,19.2348,VALID,4,VALID,0.321484,
2011-10-11, 02:52:04,VALID,918.208,VALID,0,VALID,96.2914,VALID,0,VALID,19.2948,VALID,4,VALID,0.0425781,
2011-10-11, 02:53:04,VALID,918.207,VALID,0,VALID,96.2685,VALID,0,VALID,19.2543,VALID,4,VALID,0.221094,
2011-10-11, 02:54:04,VALID,918.213,VALID,0,VALID,96.1846,VALID,0,VALID,19.2543,VALID,4,VALID,0,
2011-10-11, 02:55:04,VALID,918.175,VALID,0,VALID,96.116,VALID,0,VALID,19.2363,VALID,4,VALID,0,
2011-10-11, 02:56:04,VALID,918.174,VALID,0,VALID,95.9102,VALID,0,VALID,19.1778,VALID,4,VALID,0,
2011-10-11, 02:57:04,VALID,918.204,VALID,0,VALID,95.8263,VALID,0,VALID,19.1373,VALID,4,VALID,0,
2011-10-11, 02:58:04,VALID,918.176,VALID,0,VALID,95.7654,VALID,0,VALID,19.0983,VALID,4,VALID,0,
2011-10-11, 02:59:04,VALID,918.154,VALID,0,VALID,95.6205,VALID,0,VALID,19.0803,VALID,4,VALID,0,
2011-10-11, 03:00:04,VALID,918.135,VALID,0,VALID,95.5595,VALID,0,VALID,19.0413,VALID,4,VALID,0,
2011-10-11, 03:01:04,VALID,918.12,VALID,0,VALID,95.529,VALID,0,VALID,18.9619,VALID,4,VALID,0,
2011-10-11, 03:02:04,VALID,918.103,VALID,0,VALID,95.5519,VALID,0,VALID,18.9424,VALID,4,VALID,0,
2011-10-11, 03:03:04,VALID,918.133,VALID,0,VALID,95.6205,VALID,0,VALID,18.9229,VALID,4,VALID,0,
2011-10-11, 03:04:04,VALID,918.129,VALID,0,VALID,95.5976,VALID,0,VALID,18.9034,VALID,4,VALID,0,
2011-10-11, 03:05:04,VALID,918.099,VALID,0,VALID,95.59,VALID,0,VALID,18.8839,VALID,4,VALID,0,
2011-10-11, 03:06:04,VALID,918.08,VALID,0,VALID,95.7044,VALID,0,VALID,18.8839,VALID,4,VALID,0,
2011-10-11, 03:07:04,VALID,918.096,VALID,0,VALID,95.7577,VALID,0,VALID,18.8839,VALID,4,VALID,0.265234,
2011-10-11, 03:08:04,VALID,918.089,VALID,0,VALID,95.5519,VALID,0,VALID,18.8254,VALID,4,VALID,0.00585938,
2011-10-11, 03:09:04,VALID,918.082,VALID,0,VALID,95.5062,VALID,0,VALID,18.7669,VALID,4,VALID,0,
2011-10-11, 03:10:04,VALID,918.083,VALID,0,VALID,95.4833,VALID,0,VALID,18.7669,VALID,4,VALID,0.225781,
2011-10-11, 03:11:04,VALID,918.055,VALID,0,VALID,95.6434,VALID,0,VALID,18.8268,VALID,4,VALID,0.181641,
2011-10-11, 03:12:04,VALID,918.062,VALID,0,VALID,95.7806,VALID,0,VALID,18.8059,VALID,4,VALID,0,
2011-10-11, 03:13:04,VALID,918.035,VALID,0,VALID,95.3842,VALID,0,VALID,18.6903,VALID,4,VALID,0,
2011-10-11, 03:14:04,VALID,918.054,VALID,0,VALID,95.4299,VALID,0,VALID,18.6499,VALID,4,VALID,0,
2011-10-11, 03:15:04,VALID,918.043,VALID,0,VALID,95.4604,VALID,0,VALID,18.6499,VALID,4,VALID,0,
2011-10-11, 03:16:04,VALID,918.071,VALID,0,VALID,95.6434,VALID,0,VALID,18.6903,VALID,4,VALID,0.245312,
2011-10-11, 03:17:04,VALID,918.061,VALID,0,VALID,95.7425,VALID,0,VALID,18.6694,VALID,4,VALID,0.614453,
2011-10-11, 03:18:04,VALID,918.078,VALID,0,VALID,95.6357,VALID,0,VALID,18.6319,VALID,4,VALID,0.357422,
2011-10-11, 03:19:04,VALID,918.075,VALID,0,VALID,95.9254,VALID,0,VALID,18.6499,VALID,4,VALID,0.354688,
2011-10-11, 03:20:04,VALID,918.071,VALID,0,VALID,96.1084,VALID,0,VALID,18.7098,VALID,4,VALID,0.421484,
2011-10-11, 03:21:04,VALID,918.071,VALID,0,VALID,96.1465,VALID,0,VALID,18.6889,VALID,4,VALID,0.612891,
2011-10-11, 03:22:04,VALID,918.055,VALID,0,VALID,96.0932,VALID,0,VALID,18.6708,VALID,4,VALID,0.533984,
2011-10-11, 03:23:04,VALID,918.031,VALID,0,VALID,96.177,VALID,0,VALID,18.6708,VALID,4,VALID,0.536328,
2011-10-11, 03:24:04,VALID,918.036,VALID,0,VALID,96.4667,VALID,0,VALID,18.7683,VALID,4,VALID,0.671875,
2011-10-11, 03:25:04,VALID,918.056,VALID,0,VALID,96.5963,VALID,0,VALID,18.8463,VALID,4,VALID,0.119141,
2011-10-11, 03:26:04,VALID,918.026,VALID,0,VALID,96.5734,VALID,0,VALID,18.8463,VALID,4,VALID,0.0859375,
2011-10-11, 03:27:04,VALID,917.995,VALID,0,VALID,96.6802,VALID,0,VALID,18.9048,VALID,4,VALID,0.276953,
2011-10-11, 03:28:04,VALID,917.991,VALID,0,VALID,96.6115,VALID,0,VALID,18.9048,VALID,4,VALID,0.238672,
2011-10-11, 03:29:04,VALID,917.961,VALID,0,VALID,96.6802,VALID,0,VALID,18.9424,VALID,4,VALID,0.135547,
2011-10-11, 03:30:04,VALID,917.95,VALID,0,VALID,96.6039,VALID,0,VALID,18.9438,VALID,4,VALID,0.146094,
2011-10-11, 03:31:04,VALID,917.956,VALID,0,VALID,96.5506,VALID,0,VALID,18.9034,VALID,4,VALID,0.268359,
2011-10-11, 03:32:04,VALID,917.969,VALID,0,VALID,96.5582,VALID,0,VALID,18.9633,VALID,4,VALID,0.392969,
2011-10-11, 03:33:04,VALID,918.021,VALID,0,VALID,96.4362,VALID,0,VALID,18.9229,VALID,4,VALID,0.317578,
2011-10-11, 03:34:04,VALID,918.011,VALID,0,VALID,96.4362,VALID,0,VALID,18.9619,VALID,4,VALID,0.294141,
2011-10-11, 03:35:04,VALID,918.017,VALID,0,VALID,96.2685,VALID,0,VALID,18.8853,VALID,4,VALID,0.176563,
2011-10-11, 03:36:04,VALID,918.042,VALID,0,VALID,96.3219,VALID,0,VALID,18.8853,VALID,4,VALID,0,
2011-10-11, 03:37:04,VALID,918.035,VALID,0,VALID,96.2075,VALID,0,VALID,18.8658,VALID,4,VALID,0,
2011-10-11, 03:38:04,VALID,918.04,VALID,0,VALID,96.0932,VALID,0,VALID,18.8073,VALID,4,VALID,0,
2011-10-11, 03:39:04,VALID,918.023,VALID,0,VALID,96.0398,VALID,0,VALID,18.7669,VALID,4,VALID,0,
2011-10-11, 03:40:04,VALID,918.042,VALID,0,VALID,95.895,VALID,0,VALID,18.7084,VALID,4,VALID,0,
2011-10-11, 03:41:04,VALID,918.038,VALID,0,VALID,95.9026,VALID,0,VALID,18.7279,VALID,4,VALID,0,
2011-10-11, 03:42:04,VALID,918.036,VALID,0,VALID,96.0093,VALID,0,VALID,18.8073,VALID,4,VALID,0,
2011-10-11, 03:43:04,VALID,918.008,VALID,0,VALID,96.1313,VALID,0,VALID,18.8463,VALID,4,VALID,0,
2011-10-11, 03:44:04,VALID,918.031,VALID,0,VALID,96.0017,VALID,0,VALID,18.8268,VALID,4,VALID,0,
2011-10-11, 03:45:04,VALID,918.004,VALID,0,VALID,96.1465,VALID,0,VALID,18.8463,VALID,4,VALID,0,
2011-10-11, 03:46:04,VALID,917.989,VALID,0,VALID,96.1618,VALID,0,VALID,18.8658,VALID,4,VALID,0,
2011-10-11, 03:47:04,VALID,917.962,VALID,0,VALID,96.1923,VALID,0,VALID,18.8463,VALID,4,VALID,0,
2011-10-11, 03:48:04,VALID,917.955,VALID,0,VALID,96.1465,VALID,0,VALID,18.8254,VALID,4,VALID,0,
2011-10-11, 03:49:04,VALID,917.931,VALID,0,VALID,96.1389,VALID,0,VALID,18.8073,VALID,4,VALID,0,
2011-10-11, 03:50:04,VALID,917.904,VALID,0,VALID,96.3371,VALID,0,VALID,18.8449,VALID,4,VALID,0.200391,
2011-10-11, 03:51:04,VALID,917.924,VALID,0,VALID,96.3676,VALID,0,VALID,18.8839,VALID,4,VALID,0.304688,